Regional Weather Roundup
Issued by NWS

Home | Current Version | Previous Version | Text Only | Print | Product List | Glossary Off
Versions: 1 2 3 4 5 6 7 8 9 10 11 12 13 14 15 16 17 18 19 20 21 22 23 24 25 26 27 28 29 30 31 32 33 34 35 36 37 38 39 40 41 42 43 44 45 46 47 48 49 50

000
ASUS43 KMPX 291810
RWRMN
WEATHER ROUNDUP FOR MINNESOTA
NATIONAL WEATHER SERVICE TWIN CITIES/CHANHASSEN MN
100 PM CDT FRI MAY 29 2015


NOTE: "FAIR" INDICATES FEW OR NO CLOUDS BELOW 12,000 FEET WITH NO
SIGNIFICANT WEATHER AND/OR OBSTRUCTIONS TO VISIBILITY. N/A MEANS
CURRENT SKY AND/OR WEATHER CONDITIONS ARE NOT AVAILABLE.

MNZ060>063-068>070-291900-
   Twin Cities Metro

CITY           SKY/WX    TMP DP  RH WIND       PRES   REMARKS
TWIN CITIES    LGT RAIN  70  63  78 SW13      29.90R
6HR MIN TEMP:  65; 6HR MAX TEMP:  71; 6HR PCP: TRACE;

ST PAUL        LGT RAIN  70  64  81 SW8       29.90S
CRYSTAL        LGT RAIN  68  65  90 W8        29.89R FOG
BLAINE         RAIN      68  66  94 SW12G17   29.89R
LAKEVILLE      LGT RAIN  66  63  88 SW3       29.91S
EDEN PRAIRIE   LGT RAIN  70  63  78 SW12      29.89S
6HR MIN TEMP:  67; 6HR MAX TEMP:  70; 6HR PCP: TRACE;

SOUTH ST PAUL  CLOUDY    71  64  79 W12       29.90S
LAKE ELMO      PTSUNNY   72  64  78 SW6       29.91S
$$
MNZ001>005-007-008-013>017-022>024-027-028-291900-
   Northwest Minnesota

CITY           SKY/WX    TMP DP  RH WIND       PRES   REMARKS
BEMIDJI        CLOUDY    49  43  78 N15G22    30.06S
HALLOCK        MOSUNNY   52  37  58 N25G31    30.18F
ROSEAU         PTSUNNY   50  43  76 NW21      30.14R
WARROAD        CLOUDY    48  41  76 NW16G24   30.13R
THIEF RVR FALL CLOUDY    46  37  71 N21G26    30.15R
CROOKSTON      CLOUDY    46  37  71 N25G32    30.16S
FOSSTON        CLOUDY    46  41  81 N18       30.11S
DETROIT LAKES  CLOUDY    48  43  81 N13G26    30.08S
MOORHEAD       CLOUDY    46  41  81 N31       30.14R
PARK RAPIDS    CLOUDY    52  45  77 N17G26    30.03R
MAHNOMEN       CLOUDY    46  42  84 N24       30.10R
$$
MNZ006-009>011-018-025>026-291900-
   North Central Minnesota

CITY           SKY/WX    TMP DP  RH WIND       PRES   REMARKS
BAUDETTE       CLOUDY    50  40  68 N14G25    30.08R
FLAG ISLAND    PTSUNNY   46  39  76 N22G31    30.10R
INTL FALLS     CLOUDY    51  44  77 NW13      30.03R
6HR MIN TEMP:  50; 6HR MAX TEMP:  58;

WASKISH        CLOUDY    48  43  81 N13G21    30.08R
BIG FORK       CLOUDY    54  46  76 NW7       30.02S
LONGVILLE      CLOUDY    50  48  93 NW7       30.01R
GRAND RAPIDS   CLOUDY    50  46  87 NW15G21   30.00R
CRANE LAKE     CLOUDY    52  50  93 NW12G17   29.99R
COOK           CLOUDY    54  52  94 NW8       29.98R
WALKER         CLOUDY    48  44  86 N7        30.04R
$$
MNZ012-019>021-037-291900-
   Northeast Minnesota

CITY           SKY/WX    TMP DP  RH WIND       PRES   REMARKS
DULUTH         CLOUDY    63  57  81 N9        29.92R
6HR MIN TEMP:  57; 6HR MAX TEMP:  68; 6HR PCP:  0.01;

HIBBING        LGT RAIN  55  53  93 NW18      29.96R FOG
EVELETH        LGT RAIN  59  54  82 N12G17    29.95S
DULUTH HARBOR  CLOUDY    54  48  82 CALM      29.91R
TWO HARBORS    CLOUDY    68  61  77 CALM      29.88S
SILVER BAY     CLOUDY    66  57  72 NW5       29.87S
GRAND MARAIS     N/A     43  40  89 W6        29.86R
G MARAIS ARPRT PTSUNNY   63  54  72 W12G18    29.89R
$$
MNZ029>031-032-039>041-046>048-054>057-064-291900-
   West Central Minnesota

CITY           SKY/WX    TMP DP  RH WIND       PRES   REMARKS
FERGUS FALLS   CLOUDY    50  46  87 N17G30    30.07R
WHEATON        CLOUDY    45  43  93 NW23G37   30.09R
MORRIS         DRIZZLE   54  52  94 N18G26    30.00R
ALEXANDRIA     LGT RAIN  54  52  93 N16G23    30.00R FOG
ELBOW LAKE     CLOUDY    52  50  93 N18G25    30.03R
WADENA         CLOUDY    52  48  87 N15       30.02R
GLENWOOD       DRIZZLE   57  55  94 N16G24    29.98R
APPLETON       DRIZZLE   54  52  94 N24G32    30.00R
BENSON         LGT RAIN  55  54  94 N17G25    29.98R
ORTONVILLE     CLOUDY    48  45  87 N29G35    30.03R
MADISON        LGT RAIN  52  48  87 N23G32    30.01R
WILLMAR        RAIN      64  63  94 CALM      29.95S
$$
MNZ033>034-036-042>043-049>051-058-059-291900-
   Central Minnesota

CITY           SKY/WX    TMP DP  RH WIND       PRES   REMARKS
ST CLOUD       LGT RAIN  65  61  87 NW9       29.92R
6HR MIN TEMP:  64; 6HR MAX TEMP:  66; 6HR PCP:  0.01;

SAUK CENTRE    LGT RAIN  59  56  90 N14       29.96R
PAYNESVILLE    LGT RAIN  62  60  94 NW8       29.94S
AITKIN         DRIZZLE   61  54  77 N10G18    29.95S
PINE RIVER     CLOUDY    52  52 100 N10G20    30.04R
BRAINERD       LGT RAIN  57  54  89 N18G24    29.97R
STAPLES        CLOUDY    52  50  93 N16G24    30.00R
LONG PRAIRIE   DRIZZLE   57  55  94 NW10G21   29.97R
LITTLE FALLS   DRIZZLE   59  55  88 N8        29.95S
LITCHFIELD     RAIN      64  64 100 N8        29.94S
BUFFALO        RAIN      64  61  88 CALM      29.93R
MAPLE LAKE     RAIN      65  62  89 NW5       29.93R
$$
MNZ037-044-045-052-053-291900-
   East Central Minnesota

CITY           SKY/WX    TMP DP  RH WIND       PRES   REMARKS
PRINCETON      DRIZZLE   68  63  83 NW8       29.91R
MORA           CLOUDY    64  57  77 NW12G17   29.92S
CAMBRIDGE      DRIZZLE   70  57  64 CALM      29.88S
RUSH CITY      LGT RAIN  66  63  90 CALM      29.90S
MOOSE LAKE     CLOUDY    66  57  72 NW15      29.91R
HINCKLEY       MOCLDY    68  61  77 N8        29.91S
CLOQUET        CLOUDY    63  55  77 NW9       29.93R
MCGREGOR       CLOUDY    61  55  82 N12G17    29.95S
$$
MNZ071>073-080-081-089-090-097-098-291900-
   Southwest Minnesota

CITY           SKY/WX    TMP DP  RH WIND       PRES   REMARKS
MONTEVIDEO     LGT RAIN  54  54 100 N15       29.98R
GRANITE FALLS  LGT RAIN  56  55  95 NW14      29.98R
CANBY          HVY RAIN  50  49  95 N18G25    30.02R
MARSHALL       CLOUDY    52  46  82 N23G30    29.97R
REDWOOD FALLS  HVY RAIN  63  61  93 N10G21    29.92R FOG
OLIVIA         LGT RAIN  59  55  88 N13       29.93R
PIPESTONE      RAIN      55  52  88 NE15G25   29.96R
WINDOM         DRIZZLE   66  63  88 CALM      29.91F
WORTHINGTON    CLOUDY    64  59  82 NW10      29.91S
JACKSON        CLOUDY    70  64  83 W3        29.91S
TRACY          RAIN      56  55  97 NW16G25   29.96R
SLAYTON        RAIN      55  55 100 NW20G26   29.95R
$$
MNZ065>067-074>077-082>085-091>093-291900-
   South Central Minnesota

CITY           SKY/WX    TMP DP  RH WIND       PRES   REMARKS
MANKATO        CLOUDY    66  63  88 SW7       29.91F
NEW ULM        LGT RAIN  68  64  88 W6        29.91S
ST JAMES       CLOUDY    70  66  88 W7        29.91F
FAIRMONT       CLOUDY    70  61  73 W5        29.90S
GLENCOE        DRIZZLE   68  66  94 NW6       29.91S
FARIBAULT      CLOUDY    66  64  94 W3        29.92F
OWATONNA       RAIN      70  63  78 SW6       29.91F
WASECA         HVY RAIN  64  61  88 W6        29.93R
ALBERT LEA     CLOUDY    72  66  83 S10       29.90S
$$
MNZ078>079-086>088-094>096-291900-
   Southeast Minnesota

CITY           SKY/WX    TMP DP  RH WIND       PRES   REMARKS
ROCHESTER      CLOUDY    72  64  76 SW12      29.92S
6HR MIN TEMP:  65; 6HR MAX TEMP:  72; 6HR PCP: TRACE;

RED WING       LGT RAIN  73  63  68 SW6       29.90R
STANTON        CLOUDY    70  63  78 W6        29.91S
DODGE CENTER   HVY RAIN  66  64  94 W6        29.92F
WINONA         CLOUDY    75  63  64 SW8       29.90F
AUSTIN         CLOUDY    72  64  78 S9        29.90F
PRESTON        LGT RAIN  70  63  78 SW7       29.93S
$$
ABBREVIATIONS USED IN REMARKS
   TC - TEMPERATURES IN CELSIUS
  WCI - WIND CHILL INDEX
   HX - HEAT INDEX
  VSB - VISIBILITY
$$



USA.gov is the U.S. government's official web portal to all federal, state and local government web resources and services.